User: anonymous   Login
Location: Unspecified
(0.0000°N, 0.0000°E)
Time: 13:21:43
(UTC+00:00)
Language:

OV3-3 - Orbit

View from above orbital plane
View from above orbital plane
View from above satellite
View from above satellite

Ground track
Ground track

The orbit data is extracted from the following two-line orbital elements,

1  2389U 66070A   18263.73129792 +.00000923 +00000-0 +52089-4 0  9993
2  2389 081.3902 156.1757 1240853 253.2625 092.8981 12.92190732229250
Epoch (UTC): 20 September 2018 17:33:04
Eccentricity: 0.1240853
inclination: 81.3902°
perigee height: 341 km
apogee height: 2244 km
right ascension of ascending node: 156.1757°
argument of perigee: 253.2625°
revolutions per day: 12.92190732
mean anomaly at epoch: 92.8981°
orbit number at epoch: 22925

The dashed part of the orbit path shows where the satellite is in the earth's shadow,  

DLR